Regional Weather Roundup
Issued by NWS

Home | Current Version | Previous Version | Graphics & Text | Print | Product List | Glossary On
Versions: 1 2 3 4 5 6 7 8 9 10 11 12 13 14 15 16 17 18 19 20 21 22 23 24 25 26 27 28 29 30 31 32 33 34 35 36 37 38 39 40 41 42 43 44 45 46 47 48 49 50
000
ASUS43 KLSX 290707
RWRMO

WEATHER SUMMARY FOR MISSOURI
NATIONAL WEATHER SERVICE SPRINGFIELD MO
200 AM CDT SAT AUG 29 2015

NOTE: "FAIR" INDICATES FEW OR NO CLOUDS BELOW 12,000 FEET WITH NO
       SIGNIFICANT WEATHER AND/OR OBSTRUCTIONS TO VISIBILITY.
       CURRENT SKY AND/OR WEATHER CONDITIONS ARE NOT AVAILABLE FOR
       CHILLICOTHE AND FARMINGTON.

MOZ001>031-035>038-043-044-053-054-290800-
...NORTHERN AND WESTERN MISSOURI...

CITY           SKY/WX    TMP DP  RH WIND       PRES   REMARKS
KANSAS CTY INT CLOUDY    70  68  93 S5        29.93F
KANSAS C DTWN  CLOUDY    73  69  87 SW5       29.92F
LEE`S SUMMIT   CLOUDY    71  68  90 S7        29.95S
ST JOSEPH      CLOUDY    69  66  90 NE3       29.93S
CHILLICOTHE      N/A     70  68  93 CALM      29.94F
KIRKSVILLE     CLOUDY    69  63  81 S7        29.96S

$$
MOZ066>068-077>081-088>096-101>105-290800-
...SOUTHWEST MISSOURI...

CITY           SKY/WX    TMP DP  RH WIND       PRES   REMARKS
SPRINGFIELD    CLOUDY    72  60  66 S14       30.00S
JOPLIN         MOCLDY    73  63  70 S12       29.97S

$$
MOZ032>034-039>042-045>050-055>058-069>072-290800-
...CENTRAL MISSOURI...

CITY           SKY/WX    TMP DP  RH WIND       PRES   REMARKS
COLUMBIA       CLOUDY    69  63  81 S7        30.00S
JEFFERSON CITY CLOUDY    72  61  68 E5        29.99R
ROLLA          MOCLDY    69  60  73 S10       30.00F
SEDALIA        CLOUDY    71  63  75 S8        29.97F
WHITEMAN AFB   MOCLDY    68  64  86 S7        29.95S
WARRENSBURG    CLOUDY    70  64  83 S3        29.95S
OSAGE BEACH    MOCLDY    70  59  68 SE3       29.99F

$$
MOZ051-052-059>065-290800-
...EAST CENTRAL MISSOURI...

CITY           SKY/WX    TMP DP  RH WIND       PRES   REMARKS
ST LOUIS INTL  CLOUDY    74  62  66 S6        30.04R
SPIRIT OF STL  CLOUDY    69  65  86 CALM      30.02R
ST CHARLES     CLOUDY    69  66  90 E6        30.02S

$$
MOZ072>076-082>087-097>100-106>115-290800-
...SOUTH CENTRAL AND SOUTHEAST MISSOURI...

CITY           SKY/WX    TMP DP  RH WIND       PRES   REMARKS
CAPE GIRARDEAU CLOUDY    70  66  87 S5        30.02S
FARMINGTON     CLOUDY    68  63  83 S3        30.04F
POPLAR BLUFF   CLOUDY    69  67  93 CALM      30.00F
WEST PLAINS    CLOUDY    69  61  75 SW3       30.06S

$$


USA.gov is the U.S. government's official web portal to all federal, state and local government web resources and services.